User: anonymous   Login
Location: Oshawa
(43.9000°N, 78.8670°W)
Time: 03:26:56
(UTC-05:00)
Language:

IDEFIX/ARIANE 42P - Orbit

View from above orbital plane
View from above orbital plane
View from above satellite
View from above satellite

Ground track
Ground track

The orbit data is extracted from the following two-line orbital elements,

1 27422U 02021B   15059.55106943  .00000133  00000-0  68381-4 0  9992
2 27422 098.2698 094.4199 0012060 199.8555 160.2160 14.29141571666748
Epoch (UTC): 28 February 2015 13:13:32
Eccentricity: 0.0012060
inclination: 98.2698°
perigee height: 786 km
apogee height: 803 km
right ascension of ascending node: 94.4199°
argument of perigee: 199.8555°
revolutions per day: 14.29141571
mean anomaly at epoch: 160.2160°
orbit number at epoch: 66674

The dashed part of the orbit path shows where the satellite is in the earth's shadow,  

DLR